George, South Africa

7:08 AM SAST on September 01, 2016 (GMT +0200)
George

Weather History for FAGG - July, 2013

Change the Weather History Date:

Sunday, July 28, 2013

  Actual Average Record
Temperature  
Mean Temperature 52 °F -  
Max Temperature 61 °F 64 °F 68 °F (2002)
Min Temperature 43 °F 45 °F 41 °F (2000)
Degree Days  
Heating Degree Days 13    
Growing Degree Days 2 (Base 50)    
Moisture  
Dew Point 39 °F    
Average Humidity 62    
Maximum Humidity 87    
Minimum Humidity 36    
Precipitation  
Precipitation 0.00 in - - ()
Sea Level Pressure  
Sea Level Pressure 30.16 in    
Wind  
Wind Speed 10 mph ()    
Max Wind Speed 21 mph    
Max Gust Speed 31 mph    
Visibility 8.1 miles    
Events      
Averages and records for this station are not official NWS values.
T = Trace of Precipitation, MM = Missing Value Source: Averaged Metar Reports

Daily Weather History Graph

Daily Weather History Graph

Search for Another Location

Airport or City:

Trip Planner

Search our weather history database for the weather conditions in past years. The results will help you decide how hot, cold, wet, or windy it might be!

Date:

Astronomy

Jul. 28, 2013 Rise Set
Actual Time 7:26 AM SAST 5:48 PM SAST
Civil Twilight 6:59 AM SAST 6:14 PM SAST
Nautical Twilight 6:29 AM SAST 6:44 PM SAST
Astronomical Twilight 5:59 AM SAST 7:14 PM SAST
Moon No Moon Rise 10:47 AM SAST (7/28)
Length of Visible Light 11h 15m
Length of Day
10h 21m
Waning Gibbous, 63% of the Moon is Illuminated
Jul 28
Waning Gibbous
Jul 29
Last Quarter
Aug 6
New
Aug 14
First Quarter
Aug 21
Full

Hourly Weather History & Observations

Time (SAST) Temp. Windchill Dew Point Humidity Pressure Visibility Wind Dir Wind Speed Gust Speed Precip Events Conditions
12:00 AM 46.4 °F 41.9 °F 42.8 °F 87% 30.04 in - WNW 9.2 mph - N/A   Clear
1:00 AM 46.4 °F 41.5 °F 41.0 °F 81% 30.04 in - WNW 10.4 mph - N/A   Clear
2:00 AM 47 °F - 41 °F 73% 30.06 in 25 mi West 10.4 mph - -  
2:00 AM 46.4 °F 41.5 °F 41.0 °F 81% 30.04 in - West 10.4 mph - N/A   Clear
3:00 AM 46.4 °F 44.3 °F 41.0 °F 81% 30.04 in 6.2 mi NNW 4.6 mph - N/A   Partly Cloudy
4:00 AM 46.4 °F 43.5 °F 37.4 °F 71% 30.04 in - WNW 5.8 mph - N/A   Clear
5:00 AM 45 °F - 38 °F 68% 30.05 in 12 mi NW 8.1 mph - -   Scattered Clouds
5:00 AM 44.6 °F 40.2 °F 37.4 °F 76% 30.04 in - NW 8.1 mph - N/A   Clear
6:00 AM 44.6 °F 40.2 °F 37.4 °F 76% 30.06 in - NW 8.1 mph - N/A   Clear
7:00 AM 44.6 °F 39.2 °F 37.4 °F 76% 30.06 in - WNW 10.4 mph - N/A   Clear
8:00 AM 45 °F - 36 °F 60% 30.12 in 12 mi NW 5.8 mph - -   Scattered Clouds
8:00 AM 44.6 °F 41.4 °F 35.6 °F 71% 30.09 in - NW 5.8 mph - N/A   Clear
9:00 AM 50.0 °F - 41.0 °F 71% 30.12 in - WNW 9.2 mph - N/A   Clear
10:00 AM 55.4 °F - 39.2 °F 54% 30.15 in 6.2 mi WNW 17.3 mph - N/A   Partly Cloudy
11:00 AM 57 °F - 37 °F 36% 30.16 in 12 mi West 19.6 mph - -   Partly Cloudy
11:00 AM 57.2 °F - 37.4 °F 48% 30.15 in 6.2 mi West 19.6 mph - N/A   Scattered Clouds
1:00 PM 60.8 °F - 39.2 °F 45% 30.15 in 6.2 mi West 20.7 mph - N/A   Scattered Clouds
2:00 PM 57 °F - 39 °F 39% 30.18 in 12 mi WSW 18.4 mph - -   Partly Cloudy
2:00 PM 57.2 °F - 37.4 °F 48% 30.15 in 6.2 mi West 19.6 mph - N/A   Scattered Clouds
3:00 PM 60.8 °F - 37.4 °F 42% 30.18 in 6.2 mi WSW 19.6 mph 31.1 mph N/A   Mostly Cloudy
4:00 PM 57.2 °F - 41.0 °F 55% 30.21 in 6.2 mi West 19.6 mph - N/A   Mostly Cloudy
5:00 PM 57 °F - 38 °F 37% 30.25 in 12 mi West 19.6 mph - -   Scattered Clouds
5:00 PM 57.2 °F - 37.4 °F 48% 30.24 in 6.2 mi West 19.6 mph - N/A   Partly Cloudy
6:00 PM 53.6 °F - 39.2 °F 58% 30.27 in 6.2 mi WNW 11.5 mph - N/A   Partly Cloudy
7:00 PM 50.0 °F - 39.2 °F 66% 30.27 in - WNW 9.2 mph - N/A   Clear
8:00 PM 52 °F - 39 °F 50% 30.33 in 12 mi WNW 11.5 mph - -   Scattered Clouds
8:00 PM 51.8 °F - 39.2 °F 62% 30.33 in 6.2 mi WNW 11.5 mph - N/A   Partly Cloudy
9:00 PM 50.0 °F - 39.2 °F 66% 30.33 in 6.2 mi WNW 10.4 mph - N/A   Partly Cloudy
10:00 PM 48.2 °F - 39.2 °F 71% 30.36 in - WNW 9.2 mph - N/A   Clear
11:00 PM 48.2 °F - 39.2 °F 71% 30.36 in 6.2 mi WNW 8.1 mph - N/A   Mostly Cloudy